Back to catalog

STARLINK-34725

AliveCommunicationsSSO
NORAD 64843·PAYLOAD·🇺🇸 United States

Launched Jul 19, 2025 from Vandenberg Space Force Base

Loading…

Next Passes (next 24 hours)

TLE

FreshSource: CelesTrak SupGP

Epoch: Sep 14, 2026, 20:51 UTC

1 64843C 25152B   26257.86923611  .00030621  00000+0  95081-3 0  2572
2 64843  97.2841 108.4523 0001810  91.9534  32.1898 15.33413925    10

Track STARLINK-34725 in real time with AllMySat

Download on the App Store